Location: M?digepalle
(16.1753°N, 80.3496°E)
Time: 08:31:22
(UTC+00:00)

CZ-2C R/B - Pass Details

Date: 29 October 2020
Orbit: 391 x 587 km, 35.0° (Epoch: 27 November)

Event Time Altitude Azimuth Distance (km) Brightness Sun altitude
Rises 13:17:41 0° 215° (SW) 2,761 5.6 -16.8°
Reaches altitude 10° 13:20:16 10° 203° (SSW) 1,842 4.4 -17.4°
Maximum altitude 13:23:54 27° 144° (SE) 1,051 2.5 -18.3°
Enters shadow 13:24:17 27° 134° (SE) 1,059 2.4 -18.4°
